STARLINK-35672

Last updated on Wed Dec 10 2025 00:02:05 GMT+0000 (Coordinated Universal Time)

1 66394U 25257Q 25343.11210538 .00115352 00000+0 28493-2 0 9991 2 66394 53.1593 281.4337 0001238 83.7990 276.3156 15.39631651 5818
UTC large
Height (km)
Speed (km/s)
/
Latitude / Longitude
Inclination (degrees)
Orbital Period (minutes)
Azimuth
Elevation
Range (km)
Doppler Factor

Next 0 passes for location: London (51.5072 / 0.1276)

Sorry there are no passes over London.